Location: Dumpton Point
(51.3500°N, 1.4433°E)
Time: 22:26:26
(UTC+00:00)

Vanguard 2 Rocket - Pass Details

Date: 28 September 2022
Orbit: 555 x 3321 km, 32.9° (Epoch: 05 December)

Event Time Altitude Azimuth Distance (km) Brightness Sun altitude
Rises 23:21:24 0° 216° (SW) 5,872 - -40.7°
Reaches altitude 10° 23:28:03 10° 197° (SSW) 4,195 - -40.8°
Maximum altitude 23:33:00 14° 169° (S) 3,306 - -40.9°
Drops below altitude 10° 23:36:58 10° 139° (SE) 3,188 - -40.9°
Sets 23:40:47 0° 115° (ESE) 3,711 - -41.0°
